Roanoke, VA

3:11 PM EST on November 21, 2019 (GMT -0500)
Roanoke Regional-Woodrum

Weather History for KROA - September, 2019

Change the Weather History Date:

Monday, September 9, 2019

  Actual Average Record
Temperature  
Mean Temperature 80 °F 70 °F  
Max Temperature 87 °F 81 °F 98 °F (1939)
Min Temperature 72 °F 60 °F 42 °F (1944)
Degree Days  
Heating Degree Days 0 1  
Month to date heating degree days 0 1  
Since 1 July heating degree days 0 2  
Cooling Degree Days 15 6  
Month to date cooling degree days 107 64  
Year to date cooling degree days 1470 1111  
Growing Degree Days 29 (Base 50)    
Moisture  
Dew Point 63 °F    
Average Humidity 61    
Maximum Humidity 74    
Minimum Humidity 48    
Precipitation  
Precipitation 0.00 in 0.14 in 1.05 in (1993)
Month to date precipitation 0.06 1.22  
Year to date precipitation 30.76 29.35  
Snow  
Snow 0.00 in - - ()
Month to date snowfall 0.0  
Since 1 July snowfall T  
Since 1 September snowfall 0.0  
Snow Depth 0.00 in    
Sea Level Pressure  
Sea Level Pressure 30.17 in    
Wind  
Wind Speed 5 mph (ENE)    
Max Wind Speed 14 mph    
Max Gust Speed 16 mph    
Visibility 10 miles    
Events      
T = Trace of Precipitation, MM = Missing Value Source: NWS Daily Summary

Daily Weather History Graph

Daily Weather History Graph

Search for Another Location

Airport or City:

Astronomy

Sep. 09, 2019 Rise Set
Actual Time 6:56 AM EDT 7:37 PM EDT
Civil Twilight 6:30 AM EDT 8:03 PM EDT
Nautical Twilight 5:59 AM EDT 8:34 PM EDT
Astronomical Twilight 5:27 AM EDT 9:06 PM EDT
Moon 5:25 PM EDT (9/9) 2:32 AM EDT (9/9)
Length of Visible Light 13h 32m
Length of Day
12h 40m
Waxing Gibbous, 83% of the Moon is Illuminated
Sep 9
Waxing Gibbous
Sep 14
Full
Sep 21
Last Quarter
Sep 28
New
Oct 5
First Quarter

Hourly Weather History & Observations

Time (EDT) Temp. Heat Index Dew Point Humidity Pressure Visibility Wind Dir Wind Speed Gust Speed Precip Events Conditions
12:54 AM 72.0 °F - 61.0 °F 68% 30.12 in 10.0 mi West 3.5 mph - N/A   Clear
1:54 AM 73.0 °F - 61.0 °F 66% 30.12 in 10.0 mi NE 4.6 mph - N/A   Scattered Clouds
2:21 AM 73.0 °F - 61.0 °F 66% 30.15 in 10.0 mi NE 3.5 mph - N/A   Mostly Cloudy
2:54 AM 73.0 °F - 60.1 °F 64% 30.11 in 10.0 mi NE 3.5 mph - N/A   Overcast
3:54 AM 73.0 °F - 60.1 °F 64% 30.12 in 10.0 mi NNE 5.8 mph - N/A   Overcast
4:54 AM 73.0 °F - 61.0 °F 66% 30.12 in 10.0 mi NNE 6.9 mph - N/A   Overcast
5:54 AM 72.0 °F - 61.0 °F 68% 30.14 in 10.0 mi NNE 5.8 mph - N/A   Overcast
6:54 AM 72.0 °F - 61.0 °F 68% 30.16 in 10.0 mi NNE 6.9 mph - N/A   Overcast
7:54 AM 72.0 °F - 61.0 °F 68% 30.18 in 10.0 mi NE 3.5 mph - N/A   Overcast
8:54 AM 73.0 °F - 61.0 °F 66% 30.20 in 10.0 mi NNE 6.9 mph - N/A   Overcast
9:54 AM 75.0 °F - 62.1 °F 64% 30.21 in 10.0 mi Variable 3.5 mph - N/A   Mostly Cloudy
10:54 AM 77.0 °F - 64.0 °F 64% 30.21 in 10.0 mi Variable 3.5 mph - N/A   Scattered Clouds
11:54 AM 78.1 °F - 64.9 °F 64% 30.21 in 10.0 mi Variable 4.6 mph - N/A   Scattered Clouds
12:54 PM 81.0 °F 82.7 °F 64.9 °F 58% 30.19 in 10.0 mi Variable 3.5 mph - N/A   Scattered Clouds
1:54 PM 84.0 °F 85.4 °F 64.0 °F 51% 30.17 in 10.0 mi Variable 4.6 mph - N/A   Partly Cloudy
2:54 PM 84.9 °F 85.9 °F 63.0 °F 48% 30.16 in 10.0 mi SE 5.8 mph - N/A   Scattered Clouds
3:54 PM 86.0 °F 88.2 °F 66.0 °F 51% 30.15 in 10.0 mi South 9.2 mph - N/A   Partly Cloudy
5:54 PM 84.9 °F 87.1 °F 66.0 °F 53% 30.14 in 10.0 mi SSE 9.2 mph - N/A   Partly Cloudy
6:54 PM 82.0 °F 84.1 °F 66.0 °F 58% 30.16 in 10.0 mi SE 10.4 mph - N/A   Partly Cloudy
7:54 PM 80.1 °F 81.9 °F 64.9 °F 60% 30.19 in 10.0 mi SE 6.9 mph - N/A   Partly Cloudy
8:54 PM 79.0 °F - 66.0 °F 64% 30.22 in 10.0 mi ESE 5.8 mph - N/A   Partly Cloudy
9:54 PM 75.9 °F - 66.0 °F 71% 30.24 in 10.0 mi SE 6.9 mph - N/A   Scattered Clouds
10:54 PM 75.0 °F - 64.9 °F 71% 30.25 in 10.0 mi Calm Calm - N/A   Partly Cloudy
11:54 PM 73.0 °F - 64.9 °F 76% 30.25 in 10.0 mi Calm Calm - N/A   Mostly Cloudy